EW8016 Weather Reports


Display with metric or nautical units.
time (UTC)temp
F
wind
direction
speed
MPH
gust
MPH
rain 1hr
in
rain 24hr
in
rain mn
in
humidity
%
barometer
mb
20260509162006 66 249 2.0 4.0 0.00 0.00 0.00 51 1016.4
20260509161505 65 239 2.0 4.0 0.00 0.00 0.00 52 1016.4
20260509161218 65 235 2.0 4.0 0.00 0.00 0.00 51 1016.4
20260509160718 66 233 2.0 4.0 0.00 0.00 0.00 51 1016.6
20260509160003 66 251 2.0 4.0 0.00 0.00 0.00 51 1016.5
20260509155503 66 276 2.0 4.0 0.00 0.00 0.00 49 1016.5
20260509155216 67 279 2.0 4.0 0.00 0.00 0.00 49 1016.5
20260509154505 68 200 3.0 8.0 0.00 0.00 0.00 47 1016.7
20260509154005 69 211 3.0 8.0 0.00 0.00 0.00 46 1016.7
20260509153503 69 242 3.0 7.0 0.00 0.00 0.00 47 1016.7
20260509153005 69 244 2.0 6.0 0.00 0.00 0.00 46 1016.8
20260509152505 69 291 2.0 7.0 0.00 0.00 0.00 46 1016.9
20260509152003 69 290 2.0 7.0 0.00 0.00 0.00 47 1016.9
20260509151504 69 299 3.0 8.0 0.00 0.00 0.00 45 1016.8
20260509151222 69 298 3.0 8.0 0.00 0.00 0.00 46 1016.8
20260509150503 69 334 2.0 8.0 0.00 0.00 0.00 45 1016.9
20260509150005 70 341 2.0 8.0 0.00 0.00 0.00 45 1016.9
20260509145507 69 323 3.0 8.0 0.00 0.00 0.00 47 1016.9
20260509145003 69 318 4.0 9.0 0.00 0.00 0.00 46 1017.0
20260509144719 68 321 4.0 9.0 0.00 0.00 0.00 48 1017.0
20260509144003 68 341 3.0 8.0 0.00 0.00 0.00 48 1016.9
20260509143719 68 355 2.0 8.0 0.00 0.00 0.00 48 1017.0
20260509143009 67 294 3.0 9.0 0.00 0.00 0.00 50 1017.0
20260509142505 67 292 3.0 9.0 0.00 0.00 0.00 50 1017.2
20260509142005 66 307 2.0 8.0 0.00 0.00 0.00 50 1017.2
20260509141505 66 152 2.0 5.0 0.00 0.00 0.00 51 1017.2
20260509141004 66 183 1.0 5.0 0.00 0.00 0.00 51 1017.2
20260509140503 66 329 2.0 8.0 0.00 0.00 0.00 51 1017.3
20260509140007 67 316 3.0 8.0 0.00 0.00 0.00 50 1017.3
20260509135504 67 305 3.0 7.0 0.00 0.00 0.00 50 1017.3
20260509135003 68 345 3.0 7.0 0.00 0.00 0.00 51 1017.4
20260509134508 67 52 2.0 5.0 0.00 0.00 0.00 51 1017.6
20260509134222 67 62 2.0 6.0 0.00 0.00 0.00 52 1017.5
20260509133505 67 50 2.0 6.0 0.00 0.00 0.00 52 1017.5
20260509133004 67 41 2.0 8.0 0.00 0.00 0.00 53 1017.6
20260509132505 68 25 3.0 8.0 0.00 0.00 0.00 50 1017.7
20260509132220 68 352 2.0 6.0 0.00 0.00 0.00 52 1017.8
20260509131505 68 305 3.0 7.0 0.00 0.00 0.00 52 1017.8
20260509131008 68 299 3.0 8.0 0.00 0.00 0.00 54 1017.8
20260509130505 67 300 4.0 10.0 0.00 0.00 0.00 54 1017.9
20260509130003 67 309 3.0 10.0 0.00 0.00 0.00 55 1018.0
20260509125503 66 311 3.0 9.0 0.00 0.00 0.00 56 1018.1
20260509125003 66 338 3.0 7.0 0.00 0.00 0.00 56 1018.1
20260509124718 66 7 3.0 7.0 0.00 0.00 0.00 56 1018.1
20260509124003 66 76 2.0 7.0 0.00 0.00 0.00 54 1018.2
20260509123505 66 76 2.0 7.0 0.00 0.00 0.00 57 1018.3
20260509123219 65 83 2.0 8.0 0.00 0.00 0.00 57 1018.4
20260509122718 65 113 2.0 8.0 0.00 0.00 0.00 57 1018.5
20260509122008 64 130 2.0 8.0 0.00 0.00 0.00 56 1018.5
20260509121503 65 119 2.0 6.0 0.00 0.00 0.00 57 1018.5
20260509121006 65 90 1.0 6.0 0.00 0.00 0.00 57 1018.5
20260509120510 66 45 2.0 7.0 0.00 0.00 0.00 57 1018.7
20260509120003 66 68 3.0 9.0 0.00 0.00 0.00 57 1018.7
20260509115505 65 78 3.0 9.0 0.00 0.00 0.00 56 1018.7
20260509115005 66 61 2.0 9.0 0.00 0.00 0.00 58 1018.7
20260509114503 66 61 2.0 5.0 0.00 0.00 0.00 58 1018.7
20260509114004 66 55 2.0 6.0 0.00 0.00 0.00 58 1018.7
20260509113503 66 22 1.0 6.0 0.00 0.00 0.00 59 1018.8
20260509113005 65 50 1.0 4.0 0.00 0.00 0.00 61 1018.8
20260509112504 65 17 2.0 8.0 0.00 0.00 0.00 61 1019.0
20260509112006 64 342 2.0 8.0 0.00 0.00 0.00 62 1019.0
20260509111506 64 15 2.0 8.0 0.00 0.00 0.00 62 1019.1
20260509111005 63 67 2.0 5.0 0.00 0.00 0.00 62 1019.1
20260509110503 63 53 2.0 5.0 0.00 0.00 0.00 63 1019.2
20260509110003 62 336 2.0 5.0 0.00 0.00 0.00 65 1019.2
20260509105503 62 333 2.0 5.0 0.00 0.00 0.00 67 1019.3
20260509105005 60 351 2.0 5.0 0.00 0.00 0.00 69 1019.4
20260509104718 60 351 2.0 5.0 0.00 0.00 0.00 67 1019.4
20260509104003 60 4 1.0 4.0 0.00 0.00 0.00 67 1019.5
20260509103511 60 20 1.0 4.0 0.00 0.00 0.00 68 1019.5
20260509103003 60 29 2.0 4.0 0.00 0.00 0.00 68 1019.4
20260509102717 61 28 2.0 4.0 0.00 0.00 0.00 67 1019.5
20260509102005 61 80 1.0 4.0 0.00 0.00 0.00 68 1019.5
20260509101505 61 66 1.0 4.0 0.00 0.00 0.00 69 1019.5
20260509101004 61 54 1.0 3.0 0.00 0.00 0.00 68 1019.5
20260509100503 61 48 2.0 6.0 0.00 0.00 0.00 68 1019.5
20260509100008 62 50 2.0 6.0 0.00 0.00 0.00 68 1019.4
20260509095503 62 39 2.0 6.0 0.00 0.00 0.00 68 1019.5
20260509095218 62 40 2.0 6.0 0.00 0.00 0.00 68 1019.5
20260509094505 61 82 3.0 9.0 0.00 0.00 0.00 71 1019.5
20260509094005 60 68 3.0 9.0 0.00 0.00 0.00 70 1019.4
20260509093717 60 49 3.0 9.0 0.00 0.00 0.00 71 1019.4
20260509093005 59 32 3.0 7.0 0.00 0.00 0.00 73 1019.5
20260509092505 59 41 3.0 8.0 0.00 0.00 0.00 72 1019.4
20260509092003 60 43 3.0 8.0 0.00 0.00 0.00 72 1019.4
20260509091505 60 30 3.0 9.0 0.00 0.00 0.00 72 1019.4
20260509091003 60 38 2.0 9.0 0.00 0.00 0.00 72 1019.3
20260509090505 60 74 2.0 8.0 0.00 0.00 0.00 72 1019.3
20260509090009 60 63 3.0 9.0 0.00 0.00 0.00 72 1019.3
20260509085503 59 17 3.0 9.0 0.00 0.00 0.00 72 1019.5
20260509085004 60 11 3.0 8.0 0.00 0.00 0.00 72 1019.3
20260509084503 60 29 2.0 8.0 0.00 0.00 0.00 72 1019.5
20260509084008 60 32 3.0 7.0 0.00 0.00 0.00 72 1019.4
20260509083507 60 45 3.0 7.0 0.00 0.00 0.00 73 1019.6
20260509083005 60 82 2.0 7.0 0.00 0.00 0.00 73 1019.5
20260509082504 59 59 2.0 6.0 0.00 0.00 0.00 74 1019.6
20260509082003 59 36 2.0 6.0 0.00 0.00 0.00 74 1019.7
20260509081506 58 42 2.0 5.0 0.00 0.00 0.00 77 1019.6
20260509081220 58 33 2.0 7.0 0.00 0.00 0.00 76 1019.7
20260509080505 58 7 2.0 7.0 0.00 0.00 0.00 76 1019.7
20260509080003 58 20 1.0 5.0 0.00 0.00 0.00 77 1019.7
20260509075504 58 49 2.0 6.0 0.00 0.00 0.00 76 1019.7
20260509075005 58 44 3.0 7.0 0.00 0.00 0.00 77 1019.7
20260509074503 57 48 2.0 7.0 0.00 0.00 0.00 77 1019.8
20260509074005 57 52 2.0 6.0 0.00 0.00 0.00 78 1019.6
20260509073503 56 39 3.0 6.0 0.00 0.00 0.00 79 1019.6
20260509073008 56 29 2.0 5.0 0.00 0.00 0.00 79 1019.6
20260509072505 56 23 2.0 5.0 0.00 0.00 0.00 80 1019.7
20260509072003 56 29 2.0 5.0 0.00 0.00 0.00 80 1019.7
20260509071503 56 44 2.0 4.0 0.00 0.00 0.00 81 1019.8
20260509071219 56 50 2.0 8.0 0.00 0.00 0.00 82 1019.7
20260509070503 55 44 2.0 8.0 0.00 0.00 0.00 81 1019.9
20260509070005 55 29 1.0 4.0 0.00 0.00 0.00 83 1019.8
20260509065720 54 32 1.0 4.0 0.00 0.00 0.00 84 1019.8
20260509065003 54 34 2.0 3.0 0.00 0.00 0.00 86 1019.8
20260509064509 53 53 2.0 6.0 0.00 0.00 0.00 86 1019.9
20260509064225 53 56 2.0 6.0 0.00 0.00 0.00 86 1019.9
20260509063718 52 67 1.0 6.0 0.00 0.00 0.00 87 1019.8
20260509063003 52 59 1.0 5.0 0.00 0.00 0.00 90 1019.9
20260509062506 51 59 2.0 5.0 0.00 0.00 0.00 90 1019.8
20260509062221 51 60 1.0 5.0 0.00 0.00 0.00 90 1019.8
20260509061504 50 76 1.0 5.0 0.00 0.00 0.00 91 1019.7
20260509061005 49 70 2.0 5.0 0.00 0.00 0.00 91 1019.7
20260509060503 49 63 2.0 5.0 0.00 0.00 0.00 92 1019.7
20260509060217 49 61 2.0 5.0 0.00 0.00 0.00 92 1019.8
20260509055505 48 57 1.0 4.0 0.00 0.00 0.00 93 1019.7
20260509055003 48 68 0.0 4.0 0.00 0.00 0.00 94 1019.7
20260509054505 48 47 1.0 4.0 0.00 0.00 0.00 94 1019.7
20260509054007 47 48 1.0 4.0 0.00 0.00 0.00 94 1019.6
20260509053506 47 71 0.0 3.0 0.00 0.00 0.00 95 1019.6
20260509053216 47 71 0.0 3.0 0.00 0.00 0.00 95 1019.7
20260509052503 46 0 0.0 0.0 0.00 0.00 0.00 94 1019.6
20260509052003 46 0 0.0 0.0 0.00 0.00 0.00 95 1019.7
20260509051503 46 0 0.0 0.0 0.00 0.00 0.00 94 1019.6
20260509051003 45 0 0.0 0.0 0.00 0.00 0.00 95 1019.5
20260509050504 45 48 0.0 2.0 0.00 0.00 0.00 95 1019.6
20260509050005 45 48 0.0 2.0 0.00 0.00 0.00 95 1019.4
20260509045505 45 47 1.0 2.0 0.00 0.00 0.00 95 1019.4
20260509045003 45 46 0.0 2.0 0.00 0.00 0.00 95 1019.4
20260509044504 44 0 0.0 0.0 0.00 0.00 0.00 95 1019.4
20260509044003 44 0 0.0 0.0 0.00 0.00 0.00 94 1019.5
20260509043503 44 0 0.0 0.0 0.00 0.00 0.00 94 1019.3
20260509043218 44 0 0.0 0.0 0.00 0.00 0.00 94 1019.4
20260509042503 44 0 0.0 0.0 0.00 0.00 0.00 94 1019.4
20260509042003 44 0 0.0 0.0 0.00 0.00 0.00 94 1019.5
20260509041504 44 0 0.0 0.0 0.00 0.00 0.00 94 1019.4
20260509041010 44 0 0.0 0.0 0.00 0.00 0.00 94 1019.4
20260509040503 44 0 0.0 0.0 0.00 0.00 0.00 94 1019.4
20260509040005 44 0 0.0 0.0 0.00 0.00 0.00 94 1019.3
20260509035717 44 0 0.0 0.0 0.00 0.00 0.00 94 1019.4
20260509035010 44 0 0.0 0.0 0.00 0.00 0.00 94 1019.4
20260509034503 44 0 0.0 0.0 0.00 0.00 0.00 93 1019.5
20260509034007 44 0 0.0 0.0 0.00 0.00 0.00 93 1019.4
20260509033503 44 0 0.0 0.0 0.00 0.00 0.00 93 1019.4
20260509033003 44 0 0.0 0.0 0.00 0.00 0.00 93 1019.5
20260509032503 44 0 0.0 0.0 0.00 0.00 0.00 93 1019.5
20260509032220 44 0 0.0 0.0 0.00 0.00 0.00 93 1019.5
20260509031504 44 0 0.0 0.0 0.00 0.00 0.00 93 1019.5
20260509031008 44 0 0.0 0.0 0.00 0.00 0.00 92 1019.6
20260509030718 44 0 0.0 0.0 0.00 0.00 0.00 92 1019.7
20260509030003 45 0 0.0 0.0 0.00 0.00 0.00 92 1019.7
20260509025718 45 0 0.0 0.0 0.00 0.00 0.00 92 1019.7
20260509025006 45 0 0.0 0.0 0.00 0.00 0.00 92 1019.7
20260509024503 45 0 0.0 0.0 0.00 0.00 0.00 92 1019.7
20260509024218 45 0 0.0 0.0 0.00 0.00 0.00 92 1019.7
20260509023508 45 0 0.0 0.0 0.00 0.00 0.00 92 1019.8
20260509023009 45 0 0.0 0.0 0.00 0.00 0.00 92 1019.8
20260509022503 45 47 0.0 3.0 0.00 0.00 0.00 92 1019.7
20260509022004 45 54 1.0 3.0 0.00 0.00 0.00 92 1019.7
20260509021504 46 59 1.0 3.0 0.00 0.00 0.00 92 1019.7
20260509021003 45 62 1.0 3.0 0.00 0.00 0.00 92 1019.6
20260509020503 45 64 0.0 3.0 0.00 0.00 0.00 92 1019.6
20260509020005 45 49 0.0 3.0 0.00 0.00 0.00 92 1019.5
20260509015718 45 45 0.0 3.0 0.00 0.00 0.00 92 1019.5
20260509015005 45 42 1.0 3.0 0.00 0.00 0.00 92 1019.6
20260509014504 46 42 1.0 3.0 0.00 0.00 0.00 92 1019.5
20260509014003 46 42 1.0 3.0 0.00 0.00 0.00 92 1019.6
20260509013504 46 41 1.0 3.0 0.00 0.00 0.00 92 1019.6
20260509013004 46 37 0.0 2.0 0.00 0.00 0.00 92 1019.6
20260509012511 46 0 0.0 0.0 0.00 0.00 0.00 92 1019.7
20260509012003 46 0 0.0 0.0 0.00 0.00 0.00 91 1019.7
20260509011509 46 0 0.0 0.0 0.00 0.00 0.00 91 1019.7
20260509011004 46 0 0.0 0.0 0.00 0.00 0.00 91 1019.8
20260509010720 46 0 0.0 0.0 0.00 0.00 0.00 91 1019.8
20260509010003 46 81 0.0 2.0 0.00 0.00 0.00 90 1019.7
20260509005504 46 0 0.0 0.0 0.00 0.00 0.00 90 1019.9
20260509005005 46 0 0.0 0.0 0.00 0.00 0.00 90 1019.9
20260509004504 46 0 0.0 0.0 0.00 0.00 0.00 90 1019.8
20260509004003 46 0 0.0 0.0 0.00 0.00 0.00 90 1019.9
20260509003718 46 0 0.0 0.0 0.00 0.00 0.00 90 1019.8
20260509003010 46 82 0.0 4.0 0.00 0.00 0.00 90 1019.9
20260509002508 46 82 0.0 4.0 0.00 0.00 0.00 90 1019.8
20260509002006 46 86 0.0 2.0 0.00 0.00 0.00 90 1019.8
20260509001719 46 82 0.0 2.0 0.00 0.00 0.00 90 1019.8
20260509001005 47 75 0.0 2.0 0.00 0.00 0.00 89 1019.8
20260509000504 47 0 0.0 0.0 0.00 0.00 0.00 89 1019.8
20260509000005 47 0 0.0 0.0 0.00 0.00 0.00 88 1019.8
20260508235504 47 0 0.0 0.0 0.00 0.00 0.00 88 1019.8
20260508235006 47 0 0.0 0.0 0.00 0.00 0.00 88 1019.9
20260508234717 47 0 0.0 0.0 0.00 0.00 0.00 87 1019.8
20260508234008 48 0 0.0 0.0 0.00 0.00 0.00 86 1019.9
20260508233508 48 0 0.0 0.0 0.00 0.00 0.00 86 1019.8
20260508233216 48 0 0.0 0.0 0.00 0.00 0.00 86 1019.9
20260508232505 48 80 0.0 2.0 0.00 0.00 0.00 85 1019.9
20260508232003 49 80 0.0 2.0 0.00 0.00 0.00 85 1020.0
20260508231504 49 0 0.0 0.0 0.00 0.00 0.00 84 1020.0
20260508231005 49 0 0.0 0.0 0.00 0.00 0.00 84 1020.0
20260508230505 50 0 0.0 0.0 0.00 0.00 0.00 83 1020.1
20260508230003 50 0 0.0 0.0 0.00 0.00 0.00 83 1019.9
20260508225504 50 80 0.0 2.0 0.00 0.00 0.00 82 1020.0
20260508225003 50 80 0.0 3.0 0.00 0.00 0.00 82 1020.0
20260508224503 50 80 0.0 3.0 0.00 0.00 0.00 82 1019.9
20260508224003 50 80 0.0 2.0 0.00 0.00 0.00 81 1020.0
20260508223503 51 80 0.0 2.0 0.00 0.00 0.00 81 1020.0
20260508223005 51 80 0.0 2.0 0.00 0.00 0.00 81 1019.9
20260508222503 51 79 1.0 4.0 0.00 0.00 0.00 81 1019.8
20260508222220 51 89 1.0 4.0 0.00 0.00 0.00 82 1019.9
20260508221505 51 83 1.0 4.0 0.00 0.00 0.00 82 1019.8
20260508221005 51 74 1.0 4.0 0.00 0.00 0.00 81 1019.7
20260508220717 51 74 1.0 4.0 0.00 0.00 0.00 81 1019.7
20260508220007 51 75 1.0 5.0 0.00 0.00 0.00 81 1019.8
20260508215504 51 64 0.0 1.0 0.00 0.00 0.00 81 1019.7
20260508215004 51 0 0.0 0.0 0.00 0.00 0.00 80 1019.8
20260508214505 51 0 0.0 0.0 0.00 0.00 0.00 80 1019.8
20260508214006 51 0 0.0 0.0 0.00 0.00 0.00 80 1019.8
20260508213503 51 74 0.0 2.0 0.00 0.00 0.00 79 1019.8
20260508213003 51 59 0.0 2.0 0.00 0.00 0.00 79 1019.8
20260508212723 51 53 0.0 2.0 0.00 0.00 0.00 79 1019.8
20260508212003 52 46 0.0 2.0 0.00 0.00 0.00 78 1019.7
20260508211503 52 46 0.0 2.0 0.00 0.00 0.00 78 1019.7
20260508211003 52 46 0.0 2.0 0.00 0.00 0.00 77 1019.7
20260508210718 52 46 0.0 1.0 0.00 0.00 0.00 77 1019.8
20260508210004 52 46 0.0 1.0 0.00 0.00 0.00 76 1019.7
20260508205718 53 54 0.0 3.0 0.00 0.00 0.00 76 1019.7
20260508205217 53 59 0.0 3.0 0.00 0.00 0.00 76 1019.7
20260508204718 53 73 0.0 3.0 0.00 0.00 0.00 75 1019.7
20260508204005 53 88 0.0 3.0 0.00 0.00 0.00 75 1019.7
20260508203503 53 78 1.0 4.0 0.00 0.00 0.00 74 1019.7
20260508203003 54 75 1.0 4.0 0.00 0.00 0.00 74 1019.6
20260508202503 54 81 1.0 5.0 0.00 0.00 0.00 74 1019.6
20260508202003 54 75 1.0 5.0 0.00 0.00 0.00 74 1019.6
20260508201505 54 68 1.0 4.0 0.00 0.00 0.00 73 1019.6
20260508201217 54 72 1.0 4.0 0.00 0.00 0.00 73 1019.5
20260508200504 54 86 0.0 3.0 0.00 0.00 0.00 72 1019.6
20260508200217 54 84 0.0 3.0 0.00 0.00 0.00 72 1019.6
20260508195503 55 79 1.0 3.0 0.00 0.00 0.00 72 1019.6
20260508195005 55 75 1.0 4.0 0.00 0.00 0.00 72 1019.6
20260508194503 55 72 1.0 4.0 0.00 0.00 0.00 71 1019.5
20260508194003 55 69 1.0 4.0 0.00 0.00 0.00 71 1019.5
20260508193508 56 67 0.0 3.0 0.00 0.00 0.00 70 1019.5
20260508193219 56 65 0.0 3.0 0.00 0.00 0.00 70 1019.4
20260508192503 56 65 0.0 2.0 0.00 0.00 0.00 69 1019.5
20260508192219 56 65 0.0 2.0 0.00 0.00 0.00 69 1019.3
20260508191504 57 65 0.0 2.0 0.00 0.00 0.00 68 1019.3
20260508191005 57 65 0.0 2.0 0.00 0.00 0.00 67 1019.3
20260508190505 58 66 1.0 2.0 0.00 0.00 0.00 66 1019.2
20260508190004 58 70 1.0 3.0 0.00 0.00 0.00 65 1019.1
20260508185503 58 91 1.0 3.0 0.00 0.00 0.00 65 1019.0
20260508185005 59 95 1.0 3.0 0.00 0.00 0.00 64 1018.9
20260508184503 59 103 1.0 4.0 0.00 0.00 0.00 64 1018.9
20260508184003 59 96 1.0 4.0 0.00 0.00 0.00 64 1018.9
20260508183503 59 80 1.0 4.0 0.00 0.00 0.00 64 1018.8
20260508183005 59 78 1.0 3.0 0.00 0.00 0.00 63 1018.8
20260508182505 59 73 1.0 6.0 0.00 0.00 0.00 63 1018.7
20260508182005 60 76 2.0 6.0 0.00 0.00 0.00 62 1018.8
20260508181503 60 72 1.0 7.0 0.00 0.00 0.00 62 1018.7
20260508181004 60 73 1.0 7.0 0.00 0.00 0.00 61 1018.6
20260508180503 60 83 2.0 7.0 0.00 0.00 0.00 61 1018.6
20260508180003 60 83 2.0 8.0 0.00 0.00 0.00 61 1018.7
20260508175717 60 76 3.0 8.0 0.00 0.00 0.00 60 1018.6
20260508175011 61 62 2.0 10.0 0.00 0.00 0.00 60 1018.4
20260508174505 61 61 2.0 9.0 0.00 0.00 0.00 60 1018.3
20260508174004 62 61 2.0 9.0 0.00 0.00 0.00 59 1018.2
20260508173503 62 71 1.0 6.0 0.00 0.00 0.00 59 1018.1
20260508173004 62 94 2.0 8.0 0.00 0.00 0.00 58 1018.2
20260508172503 63 92 3.0 8.0 0.00 0.00 0.00 57 1018.2
20260508172005 63 100 3.0 7.0 0.00 0.00 0.00 56 1018.1
20260508171503 64 93 3.0 7.0 0.00 0.00 0.00 56 1018.0
20260508171218 64 88 2.0 7.0 0.00 0.00 0.00 56 1018.0
20260508170505 64 101 1.0 8.0 0.00 0.00 0.00 58 1018.0
20260508170005 64 97 1.0 8.0 0.00 0.00 0.00 57 1018.0
20260508165503 64 99 2.0 8.0 0.00 0.00 0.00 56 1017.9
20260508165004 64 87 3.0 9.0 0.00 0.00 0.00 56 1017.9
20260508164503 64 84 3.0 9.0 0.00 0.00 0.00 57 1018.0
20260508164009 64 103 3.0 8.0 0.00 0.00 0.00 57 1018.0
20260508163503 64 109 3.0 11.0 0.00 0.00 0.00 57 1017.9
20260508163003 64 99 3.0 11.0 0.00 0.00 0.00 56 1018.0